,,Stat5,,Stat1,,Stat2,,Stat3,,Stat4,,Wind1,,Wind1,
time,status,PA1M_AVG,status,PR1M_SUM,status,RH1M_AVG,status,SR1M_AVG,status,TA1M_AVG,status,W1dAve1m,status,W1sAve1m,
2001-09-27, 00:00:01,VALID,917.563,VALID,0,VALID,96.8963,VALID,0,VALID,19.1732,VALID,215,VALID,0,
2001-09-27, 00:01:01,VALID,917.547,VALID,0,VALID,96.9382,VALID,0,VALID,19.1769,VALID,144,VALID,0.182143,
2001-09-27, 00:02:01,VALID,917.525,VALID,0,VALID,96.778,VALID,0,VALID,19.1543,VALID,139,VALID,0.736328,
2001-09-27, 00:03:01,VALID,917.512,VALID,0,VALID,96.7577,VALID,-0.0169808,VALID,19.1255,VALID,141,VALID,0.711965,
2001-09-27, 00:04:01,VALID,917.494,VALID,0,VALID,96.8772,VALID,-0.0509425,VALID,19.1061,VALID,140,VALID,0.617188,
2001-09-27, 00:05:01,VALID,917.472,VALID,0,VALID,96.9509,VALID,-0.0169808,VALID,19.0959,VALID,138,VALID,0.740986,
2001-09-27, 00:06:01,VALID,917.455,VALID,0,VALID,96.8848,VALID,0,VALID,19.0805,VALID,131,VALID,0.756434,
2001-09-27, 00:07:01,VALID,917.44,VALID,0,VALID,96.8479,VALID,0,VALID,19.0644,VALID,132,VALID,0.453947,
2001-09-27, 00:08:00,VALID,917.425,VALID,0,VALID,96.8912,VALID,-0.0339617,VALID,19.054,VALID,106,VALID,0.470881,
2001-09-27, 00:09:00,VALID,917.411,VALID,0,VALID,96.7526,VALID,-0.0339617,VALID,19.0607,VALID,100,VALID,0.674409,
2001-09-27, 00:10:00,VALID,917.423,VALID,0,VALID,96.7322,VALID,0,VALID,19.0475,VALID,94,VALID,0.647615,
2001-09-27, 00:11:00,VALID,917.394,VALID,0,VALID,96.633,VALID,-0.0339617,VALID,19.0413,VALID,99,VALID,0.690234,
2001-09-27, 00:12:00,VALID,917.381,VALID,0,VALID,96.5835,VALID,-0.0169808,VALID,19.0286,VALID,105,VALID,0.771587,
2001-09-27, 00:13:00,VALID,917.377,VALID,0,VALID,96.5936,VALID,-0.0509425,VALID,19.009,VALID,110,VALID,0.926172,
2001-09-27, 00:14:00,VALID,917.36,VALID,0,VALID,96.6496,VALID,-0.0169808,VALID,19.0189,VALID,111,VALID,0.782252,
2001-09-27, 00:15:00,VALID,917.353,VALID,0,VALID,96.7348,VALID,-0.0339617,VALID,19.0385,VALID,118,VALID,0.661719,
2001-09-27, 00:16:00,VALID,917.32,VALID,0,VALID,96.6992,VALID,-0.0509425,VALID,19.0217,VALID,113,VALID,0.600535,
2001-09-27, 00:17:00,VALID,917.298,VALID,0,VALID,96.7882,VALID,-0.0849042,VALID,19.0355,VALID,125,VALID,0.580469,
2001-09-27, 00:18:00,VALID,917.284,VALID,0.2,VALID,96.7869,VALID,0,VALID,19.0254,VALID,115,VALID,0.862981,
2001-09-27, 00:19:00,VALID,917.24,VALID,0,VALID,96.7666,VALID,0,VALID,18.9993,VALID,102,VALID,0.642773,
2001-09-27, 00:20:00,VALID,917.221,VALID,0,VALID,96.839,VALID,0,VALID,18.9928,VALID,110,VALID,0.907484,
2001-09-27, 00:21:00,VALID,917.205,VALID,0,VALID,96.8899,VALID,-0.0339617,VALID,18.9799,VALID,110,VALID,0.884961,
2001-09-27, 00:22:00,VALID,917.186,VALID,0,VALID,96.9382,VALID,-0.0169808,VALID,18.9772,VALID,106,VALID,0.715545,
2001-09-27, 00:23:00,VALID,917.18,VALID,0,VALID,97.0222,VALID,-0.0339617,VALID,18.9705,VALID,108,VALID,0.971875,
2001-09-27, 00:24:00,VALID,917.17,VALID,0,VALID,97.0845,VALID,-0.0169808,VALID,18.9571,VALID,104,VALID,1.0294,
2001-09-27, 00:25:00,VALID,917.145,VALID,0,VALID,97.1735,VALID,-0.0169808,VALID,18.9508,VALID,98,VALID,0.857227,
2001-09-27, 00:26:00,VALID,917.127,VALID,0,VALID,97.2142,VALID,-0.0339617,VALID,18.9476,VALID,95,VALID,0.863381,
2001-09-27, 00:27:00,VALID,917.103,VALID,0,VALID,97.2625,VALID,-0.0169808,VALID,18.9315,VALID,102,VALID,0.988086,
2001-09-27, 00:28:00,VALID,917.074,VALID,0,VALID,97.3159,VALID,0,VALID,18.9218,VALID,102,VALID,0.769942,
2001-09-27, 00:29:00,VALID,917.074,VALID,0,VALID,97.3935,VALID,-0.0339617,VALID,18.9153,VALID,115,VALID,0.79668,
2001-09-27, 00:30:00,VALID,917.058,VALID,0,VALID,97.5117,VALID,-0.0169808,VALID,18.9156,VALID,129,VALID,0.686298,
2001-09-27, 00:31:00,VALID,917.051,VALID,0,VALID,97.5422,VALID,-0.0169808,VALID,18.9223,VALID,126,VALID,0.75293,
2001-09-27, 00:32:00,VALID,917.024,VALID,0,VALID,97.5817,VALID,0,VALID,18.9156,VALID,120,VALID,0.528988,
2001-09-27, 00:33:00,VALID,916.998,VALID,0,VALID,97.6007,VALID,0,VALID,18.9024,VALID,120,VALID,0.361523,
2001-09-27, 00:34:00,VALID,916.972,VALID,0,VALID,97.6389,VALID,-0.0169808,VALID,18.9096,VALID,134,VALID,0.451522,
2001-09-27, 00:35:00,VALID,916.948,VALID,0,VALID,97.6402,VALID,0,VALID,18.9056,VALID,137,VALID,0.657812,
2001-09-27, 00:36:00,VALID,916.913,VALID,0,VALID,97.658,VALID,0,VALID,18.9091,VALID,134,VALID,0.428043,
2001-09-27, 00:37:00,VALID,916.88,VALID,0,VALID,97.6516,VALID,0,VALID,18.9093,VALID,134,VALID,0.3625,
2001-09-27, 00:38:00,VALID,916.849,VALID,0,VALID,97.6211,VALID,0,VALID,18.9059,VALID,134,VALID,0.0444712,
2001-09-27, 00:39:00,VALID,916.804,VALID,0,VALID,97.6007,VALID,0,VALID,18.9128,VALID,134,VALID,0,
2001-09-27, 00:40:00,VALID,916.766,VALID,0,VALID,97.5995,VALID,0,VALID,18.9158,VALID,134,VALID,0,
2001-09-27, 00:41:00,VALID,916.72,VALID,0,VALID,97.5867,VALID,-0.0169808,VALID,18.922,VALID,134,VALID,0,
2001-09-27, 00:42:00,VALID,916.692,VALID,0,VALID,97.5867,VALID,0.0339617,VALID,18.9419,VALID,134,VALID,0,
2001-09-27, 00:43:00,VALID,916.657,VALID,0,VALID,97.6478,VALID,0,VALID,18.9675,VALID,134,VALID,0,
2001-09-27, 00:44:00,VALID,916.646,VALID,0,VALID,97.5613,VALID,-0.0169808,VALID,18.964,VALID,134,VALID,0,
2001-09-27, 00:45:00,VALID,916.634,VALID,0,VALID,97.5232,VALID,0,VALID,18.9578,VALID,134,VALID,0,
2001-09-27, 00:46:00,VALID,916.637,VALID,0,VALID,97.5435,VALID,0,VALID,18.9444,VALID,134,VALID,0,
2001-09-27, 00:47:00,VALID,916.622,VALID,0,VALID,97.5817,VALID,0,VALID,18.9511,VALID,136,VALID,0.248047,
2001-09-27, 00:48:00,VALID,916.611,VALID,0,VALID,97.6376,VALID,0,VALID,18.9806,VALID,137,VALID,0.612664,
2001-09-27, 00:49:00,VALID,916.603,VALID,0,VALID,97.5779,VALID,0,VALID,18.9742,VALID,124,VALID,0.649609,
2001-09-27, 00:50:00,VALID,916.601,VALID,0,VALID,97.541,VALID,0,VALID,18.9479,VALID,121,VALID,0.797676,
2001-09-27, 00:51:00,VALID,916.592,VALID,0,VALID,97.5105,VALID,0,VALID,18.9481,VALID,123,VALID,0.883203,
2001-09-27, 00:52:00,VALID,916.594,VALID,0,VALID,97.5028,VALID,0,VALID,18.9483,VALID,104,VALID,0.9375,
2001-09-27, 00:53:00,VALID,916.58,VALID,0,VALID,97.3896,VALID,0,VALID,18.9481,VALID,92,VALID,1.3127,
2001-09-27, 00:54:00,VALID,916.581,VALID,0,VALID,97.2193,VALID,0.0169808,VALID,18.9223,VALID,103,VALID,0.877804,
2001-09-27, 00:55:00,VALID,916.596,VALID,0,VALID,97.1913,VALID,0,VALID,18.8959,VALID,104,VALID,1.27773,
2001-09-27, 00:56:00,VALID,916.589,VALID,0,VALID,97.2294,VALID,0,VALID,18.8863,VALID,104,VALID,0.644737,
2001-09-27, 00:57:00,VALID,916.597,VALID,0,VALID,97.2943,VALID,-0.0169808,VALID,18.8803,VALID,110,VALID,1.02188,
2001-09-27, 00:58:00,VALID,916.592,VALID,0,VALID,97.4062,VALID,0,VALID,18.8671,VALID,98,VALID,1.01703,
2001-09-27, 00:59:00,VALID,916.603,VALID,0,VALID,97.5181,VALID,0,VALID,18.8413,VALID,127,VALID,1.09648,
2001-09-27, 01:00:00,VALID,916.59,VALID,0,VALID,97.6554,VALID,0,VALID,18.8219,VALID,113,VALID,0.552148,
2001-09-27, 01:01:00,VALID,916.57,VALID,0,VALID,97.7813,VALID,0.0169808,VALID,18.8127,VALID,95,VALID,0.733984,
2001-09-27, 01:02:00,VALID,916.566,VALID,0,VALID,97.8398,VALID,0,VALID,18.7896,VALID,109,VALID,0.701723,
2001-09-27, 01:03:00,VALID,916.537,VALID,0,VALID,97.9555,VALID,0,VALID,18.7802,VALID,96,VALID,0.678711,
2001-09-27, 01:04:00,VALID,916.522,VALID,0,VALID,98.0382,VALID,0.0339617,VALID,18.7769,VALID,103,VALID,0.518092,
2001-09-27, 01:05:00,VALID,916.522,VALID,0,VALID,98.1056,VALID,0.0169808,VALID,18.77,VALID,89,VALID,0.501562,
2001-09-27, 01:06:00,VALID,916.516,VALID,0,VALID,98.1552,VALID,0.0169808,VALID,18.764,VALID,85,VALID,0.658253,
2001-09-27, 01:07:00,VALID,916.493,VALID,0,VALID,98.1971,VALID,0,VALID,18.7608,VALID,90,VALID,0.595898,
2001-09-27, 01:08:00,VALID,916.487,VALID,0,VALID,98.2251,VALID,0.0169808,VALID,18.761,VALID,75,VALID,0.508018,
2001-09-27, 01:09:00,VALID,916.485,VALID,0,VALID,98.192,VALID,0,VALID,18.7509,VALID,88,VALID,0.620313,
2001-09-27, 01:10:00,VALID,916.466,VALID,0,VALID,98.173,VALID,-0.0169808,VALID,18.7479,VALID,80,VALID,0.530248,
2001-09-27, 01:11:00,VALID,916.445,VALID,0,VALID,98.1259,VALID,0,VALID,18.7446,VALID,121,VALID,0.407617,
2001-09-27, 01:12:00,VALID,916.405,VALID,0,VALID,98.1017,VALID,0,VALID,18.7444,VALID,138,VALID,0.605674,
2001-09-27, 01:13:00,VALID,916.381,VALID,0,VALID,98.0534,VALID,0,VALID,18.7444,VALID,140,VALID,0.694922,
2001-09-27, 01:14:00,VALID,916.339,VALID,0,VALID,97.9873,VALID,0,VALID,18.7511,VALID,146,VALID,0.720954,
2001-09-27, 01:15:00,VALID,916.311,VALID,0,VALID,97.8907,VALID,0,VALID,18.7543,VALID,143,VALID,0.884375,
2001-09-27, 01:16:00,VALID,916.281,VALID,0,VALID,97.78,VALID,-0.0339617,VALID,18.7548,VALID,148,VALID,0.736431,
2001-09-27, 01:17:00,VALID,916.258,VALID,0,VALID,97.7838,VALID,-0.118866,VALID,18.7587,VALID,154,VALID,0.654297,
2001-09-27, 01:18:00,VALID,916.258,VALID,0,VALID,97.7953,VALID,-0.118866,VALID,18.7887,VALID,150,VALID,0.726362,
2001-09-27, 01:19:00,VALID,916.215,VALID,0,VALID,97.7788,VALID,-0.101885,VALID,18.8014,VALID,142,VALID,0.666602,
2001-09-27, 01:20:00,VALID,916.211,VALID,0,VALID,97.7419,VALID,-0.101885,VALID,18.7846,VALID,143,VALID,0.892681,
2001-09-27, 01:21:00,VALID,916.206,VALID,0,VALID,97.733,VALID,-0.0849042,VALID,18.7714,VALID,143,VALID,0.90957,
2001-09-27, 01:22:00,VALID,916.201,VALID,0,VALID,97.733,VALID,-0.101885,VALID,18.7751,VALID,140,VALID,0.784655,
2001-09-27, 01:23:00,VALID,916.191,VALID,0,VALID,97.7279,VALID,-0.118866,VALID,18.7654,VALID,140,VALID,0.714258,
2001-09-27, 01:24:00,VALID,916.178,VALID,0,VALID,97.6821,VALID,-0.101885,VALID,18.7585,VALID,137,VALID,0.662623,
2001-09-27, 01:25:00,VALID,916.176,VALID,0,VALID,97.6389,VALID,-0.118866,VALID,18.7627,VALID,141,VALID,0.875977,
2001-09-27, 01:26:00,VALID,916.154,VALID,0,VALID,97.5766,VALID,-0.118866,VALID,18.7592,VALID,141,VALID,0.913061,
2001-09-27, 01:27:00,VALID,916.148,VALID,0,VALID,97.5295,VALID,-0.101885,VALID,18.7691,VALID,142,VALID,0.94707,
2001-09-27, 01:28:00,VALID,916.121,VALID,0,VALID,97.5054,VALID,-0.101885,VALID,18.789,VALID,140,VALID,0.76028,
2001-09-27, 01:29:00,VALID,916.096,VALID,0,VALID,97.4291,VALID,-0.118866,VALID,18.798,VALID,142,VALID,0.742188,
2001-09-27, 01:30:00,VALID,916.092,VALID,0,VALID,97.3808,VALID,-0.118866,VALID,18.8076,VALID,138,VALID,0.496595,
2001-09-27, 01:31:00,VALID,916.081,VALID,0,VALID,97.3032,VALID,-0.0679233,VALID,18.8134,VALID,129,VALID,0.836719,
2001-09-27, 01:32:00,VALID,916.077,VALID,0,VALID,97.2498,VALID,0.0169808,VALID,18.8184,VALID,130,VALID,0.810855,
2001-09-27, 01:33:00,VALID,916.072,VALID,0,VALID,97.1709,VALID,0.0509425,VALID,18.8348,VALID,87,VALID,0.448438,
2001-09-27, 01:34:00,VALID,916.062,VALID,0,VALID,97.0679,VALID,0.0339617,VALID,18.841,VALID,94,VALID,0.764423,
2001-09-27, 01:35:00,VALID,916.043,VALID,0,VALID,97.0031,VALID,-0.0679233,VALID,18.8425,VALID,99,VALID,0.643945,
2001-09-27, 01:36:00,VALID,916.037,VALID,0,VALID,96.942,VALID,-0.0339617,VALID,18.8457,VALID,98,VALID,0.821135,
2001-09-27, 01:37:00,VALID,916.045,VALID,0,VALID,96.8937,VALID,-0.0679233,VALID,18.8395,VALID,104,VALID,0.85957,
2001-09-27, 01:38:00,VALID,916.03,VALID,0,VALID,96.8874,VALID,-0.0679233,VALID,18.836,VALID,106,VALID,0.677684,
2001-09-27, 01:39:00,VALID,916.027,VALID,0,VALID,96.8721,VALID,-0.0679233,VALID,18.8429,VALID,119,VALID,0.816406,
2001-09-27, 01:40:00,VALID,916.014,VALID,0,VALID,96.8899,VALID,-0.0679233,VALID,18.8457,VALID,139,VALID,0.671875,
2001-09-27, 01:41:00,VALID,916.007,VALID,0,VALID,96.9014,VALID,-0.0509425,VALID,18.8425,VALID,137,VALID,0.74043,
2001-09-27, 01:42:00,VALID,915.997,VALID,0,VALID,96.9141,VALID,-0.0339617,VALID,18.8392,VALID,138,VALID,0.837941,
2001-09-27, 01:43:00,VALID,915.981,VALID,0,VALID,96.9382,VALID,-0.0339617,VALID,18.8425,VALID,143,VALID,0.689648,
2001-09-27, 01:44:00,VALID,915.967,VALID,0,VALID,96.8556,VALID,-0.0679233,VALID,18.8457,VALID,120,VALID,0.957031,
2001-09-27, 01:45:00,VALID,915.962,VALID,0,VALID,96.8518,VALID,-0.0509425,VALID,18.8291,VALID,101,VALID,0.934961,
2001-09-27, 01:46:00,VALID,915.951,VALID,0,VALID,96.8772,VALID,0,VALID,18.8196,VALID,92,VALID,0.789864,
2001-09-27, 01:47:00,VALID,915.951,VALID,0,VALID,96.8823,VALID,-0.0509425,VALID,18.8295,VALID,125,VALID,0.669141,
2001-09-27, 01:48:00,VALID,915.946,VALID,0,VALID,96.9077,VALID,-0.0509425,VALID,18.8233,VALID,101,VALID,0.71176,
2001-09-27, 01:49:00,VALID,915.934,VALID,0,VALID,96.9522,VALID,-0.0509425,VALID,18.8134,VALID,97,VALID,0.75957,
2001-09-27, 01:50:00,VALID,915.93,VALID,0,VALID,97.0285,VALID,-0.0679233,VALID,18.8136,VALID,100,VALID,0.632813,
2001-09-27, 01:51:00,VALID,915.922,VALID,0,VALID,97.059,VALID,-0.0849042,VALID,18.801,VALID,109,VALID,0.52832,
2001-09-27, 01:52:00,VALID,915.913,VALID,0,VALID,97.1112,VALID,-0.0509425,VALID,18.7846,VALID,110,VALID,0.676192,
2001-09-27, 01:53:00,VALID,915.92,VALID,0,VALID,97.143,VALID,-0.0509425,VALID,18.7885,VALID,122,VALID,0.591211,
2001-09-27, 01:54:00,VALID,915.911,VALID,0,VALID,97.204,VALID,-0.0679233,VALID,18.7716,VALID,120,VALID,0.774239,
2001-09-27, 01:55:00,VALID,915.912,VALID,0,VALID,97.2599,VALID,-0.0849042,VALID,18.7751,VALID,125,VALID,0.623633,
2001-09-27, 01:56:00,VALID,915.903,VALID,0,VALID,97.3146,VALID,-0.101885,VALID,18.7712,VALID,128,VALID,0.504729,
2001-09-27, 01:57:00,VALID,915.899,VALID,0,VALID,97.307,VALID,-0.0849042,VALID,18.7744,VALID,125,VALID,0.694922,
2001-09-27, 01:58:00,VALID,915.883,VALID,0,VALID,97.3261,VALID,-0.0679233,VALID,18.7682,VALID,135,VALID,0.648037,
2001-09-27, 01:59:00,VALID,915.864,VALID,0,VALID,97.3909,VALID,-0.0679233,VALID,18.7714,VALID,134,VALID,0.671875,
2001-09-27, 02:00:00,VALID,915.837,VALID,0,VALID,97.4354,VALID,-0.0849042,VALID,18.765,VALID,105,VALID,0.649054,
2001-09-27, 02:01:00,VALID,915.816,VALID,0,VALID,97.396,VALID,-0.0339617,VALID,18.7652,VALID,112,VALID,0.613281,
2001-09-27, 02:02:00,VALID,915.795,VALID,0,VALID,97.3731,VALID,0,VALID,18.7446,VALID,102,VALID,1.10837,
2001-09-27, 02:03:00,VALID,915.789,VALID,0,VALID,97.3451,VALID,0,VALID,18.7481,VALID,103,VALID,0.860742,
2001-09-27, 02:04:00,VALID,915.775,VALID,0,VALID,97.3057,VALID,0.0169808,VALID,18.7444,VALID,96,VALID,0.705592,
2001-09-27, 02:05:00,VALID,915.766,VALID,0,VALID,97.2409,VALID,0.0169808,VALID,18.7638,VALID,109,VALID,0.786523,
2001-09-27, 02:06:00,VALID,915.767,VALID,0,VALID,97.2027,VALID,0.0169808,VALID,18.7608,VALID,108,VALID,0.86238,
2001-09-27, 02:07:00,VALID,915.763,VALID,0,VALID,97.1493,VALID,0,VALID,18.7541,VALID,118,VALID,0.836133,
2001-09-27, 02:08:00,VALID,915.755,VALID,0,VALID,97.0629,VALID,0,VALID,18.7412,VALID,122,VALID,0.687911,
2001-09-27, 02:09:00,VALID,915.748,VALID,0,VALID,96.9904,VALID,0,VALID,18.7486,VALID,117,VALID,0.552734,
2001-09-27, 02:10:00,VALID,915.733,VALID,0,VALID,96.9789,VALID,0,VALID,18.7352,VALID,116,VALID,0.780048,
2001-09-27, 02:11:00,VALID,915.73,VALID,0,VALID,96.9268,VALID,0.0169808,VALID,18.7186,VALID,124,VALID,0.672852,
2001-09-27, 02:12:00,VALID,915.735,VALID,0,VALID,96.9382,VALID,0,VALID,18.7379,VALID,128,VALID,0.395354,
2001-09-27, 02:13:00,VALID,915.751,VALID,0,VALID,96.8848,VALID,0.0679233,VALID,18.7474,VALID,104,VALID,0.550195,
2001-09-27, 02:14:00,VALID,915.755,VALID,0,VALID,96.7958,VALID,0.0339617,VALID,18.7472,VALID,102,VALID,0.340345,
2001-09-27, 02:15:00,VALID,915.762,VALID,0,VALID,96.8034,VALID,0.0169808,VALID,18.7412,VALID,100,VALID,0.445313,
2001-09-27, 02:16:00,VALID,915.744,VALID,0,VALID,96.8759,VALID,0,VALID,18.7382,VALID,107,VALID,0.469161,
2001-09-27, 02:17:00,VALID,915.738,VALID,0,VALID,96.9217,VALID,0,VALID,18.7419,VALID,130,VALID,0.308398,
2001-09-27, 02:18:00,VALID,915.733,VALID,0,VALID,96.9395,VALID,-0.0339617,VALID,18.758,VALID,122,VALID,0.0645032,
2001-09-27, 02:19:00,VALID,915.717,VALID,0,VALID,96.9319,VALID,-0.0169808,VALID,18.7677,VALID,50,VALID,0.366016,
2001-09-27, 02:20:00,VALID,915.711,VALID,0,VALID,96.8619,VALID,0,VALID,18.7352,VALID,41,VALID,0.330387,
2001-09-27, 02:21:00,VALID,915.709,VALID,0,VALID,96.8797,VALID,-0.0339617,VALID,18.7322,VALID,41,VALID,0.248437,
2001-09-27, 02:22:00,VALID,915.684,VALID,0,VALID,96.9153,VALID,0,VALID,18.7158,VALID,49,VALID,0.25621,
2001-09-27, 02:23:00,VALID,915.679,VALID,0,VALID,97.0031,VALID,-0.0169808,VALID,18.7156,VALID,72,VALID,0.317383,
2001-09-27, 02:24:00,VALID,915.663,VALID,0,VALID,97.0539,VALID,0,VALID,18.719,VALID,82,VALID,0.419202,
2001-09-27, 02:25:00,VALID,915.66,VALID,0,VALID,97.0629,VALID,-0.0169808,VALID,18.7188,VALID,85,VALID,0.390039,
2001-09-27, 02:26:00,VALID,915.656,VALID,0,VALID,97.0412,VALID,0,VALID,18.725,VALID,92,VALID,0.502604,
2001-09-27, 02:27:00,VALID,915.643,VALID,0,VALID,96.9573,VALID,-0.0339617,VALID,18.7479,VALID,94,VALID,0.463477,
2001-09-27, 02:28:00,VALID,915.635,VALID,0,VALID,96.8429,VALID,0,VALID,18.7474,VALID,99,VALID,0.275082,
2001-09-27, 02:29:00,VALID,915.637,VALID,0,VALID,96.7424,VALID,0,VALID,18.7543,VALID,121,VALID,0.219727,
2001-09-27, 02:30:00,VALID,915.644,VALID,0,VALID,96.731,VALID,0,VALID,18.7642,VALID,135,VALID,0.323918,
2001-09-27, 02:31:00,VALID,915.654,VALID,0,VALID,96.731,VALID,-0.0509425,VALID,18.7707,VALID,130,VALID,0.329102,
2001-09-27, 02:32:00,VALID,915.646,VALID,0,VALID,96.6826,VALID,0,VALID,18.7739,VALID,85,VALID,0.337993,
2001-09-27, 02:33:00,VALID,915.642,VALID,0,VALID,96.5657,VALID,-0.0169808,VALID,18.7511,VALID,46,VALID,0.529102,
2001-09-27, 02:34:00,VALID,915.643,VALID,0,VALID,96.5377,VALID,-0.0339617,VALID,18.7322,VALID,40,VALID,0.4998,
2001-09-27, 02:35:00,VALID,915.646,VALID,0,VALID,96.6063,VALID,0,VALID,18.7096,VALID,30,VALID,0.615234,
2001-09-27, 02:36:00,VALID,915.649,VALID,0,VALID,96.7335,VALID,0,VALID,18.6902,VALID,16,VALID,0.664063,
2001-09-27, 02:37:00,VALID,915.644,VALID,0,VALID,96.7869,VALID,-0.0169808,VALID,18.6711,VALID,10,VALID,0.79043,
2001-09-27, 02:38:00,VALID,915.651,VALID,0,VALID,96.9153,VALID,0,VALID,18.6284,VALID,21,VALID,0.428486,
2001-09-27, 02:39:00,VALID,915.651,VALID,0,VALID,97.0349,VALID,-0.0169808,VALID,18.6055,VALID,26,VALID,0.595703,
2001-09-27, 02:40:00,VALID,915.656,VALID,0,VALID,97.129,VALID,-0.0169808,VALID,18.5965,VALID,26,VALID,0.418174,
2001-09-27, 02:41:00,VALID,915.646,VALID,0,VALID,97.251,VALID,-0.0339617,VALID,18.5806,VALID,38,VALID,0.489062,
2001-09-27, 02:42:00,VALID,915.64,VALID,0,VALID,97.3121,VALID,0,VALID,18.5642,VALID,44,VALID,0.385016,
2001-09-27, 02:43:00,VALID,915.631,VALID,0,VALID,97.41,VALID,-0.0339617,VALID,18.5511,VALID,44,VALID,0.216406,
2001-09-27, 02:44:00,VALID,915.613,VALID,0,VALID,97.5066,VALID,0,VALID,18.5409,VALID,38,VALID,0.259046,
2001-09-27, 02:45:00,VALID,915.607,VALID,0,VALID,97.6096,VALID,-0.0169808,VALID,18.5446,VALID,36,VALID,0.00332031,
2001-09-27, 02:46:00,VALID,915.611,VALID,0,VALID,97.7317,VALID,-0.0169808,VALID,18.5543,VALID,36,VALID,0,
2001-09-27, 02:47:00,VALID,915.604,VALID,0,VALID,97.7978,VALID,0,VALID,18.5506,VALID,36,VALID,0,
2001-09-27, 02:48:00,VALID,915.599,VALID,0,VALID,97.9034,VALID,-0.0169808,VALID,18.564,VALID,26,VALID,0.269531,
2001-09-27, 02:49:00,VALID,915.595,VALID,0,VALID,98.0165,VALID,0,VALID,18.5834,VALID,26,VALID,0.610156,
2001-09-27, 02:50:00,VALID,915.589,VALID,0,VALID,98.0916,VALID,-0.0339617,VALID,18.5933,VALID,26,VALID,0.697917,
2001-09-27, 02:51:00,VALID,915.574,VALID,0,VALID,98.117,VALID,0,VALID,18.5901,VALID,26,VALID,0.720312,
2001-09-27, 02:52:00,VALID,915.557,VALID,0,VALID,98.131,VALID,-0.0169808,VALID,18.5809,VALID,26,VALID,0.718339,
2001-09-27, 02:53:00,VALID,915.546,VALID,0,VALID,98.1717,VALID,-0.0169808,VALID,18.5578,VALID,26,VALID,0.726953,
2001-09-27, 02:54:00,VALID,915.544,VALID,0,VALID,98.22,VALID,0.0169808,VALID,18.5548,VALID,15,VALID,0.688502,
2001-09-27, 02:55:00,VALID,915.548,VALID,0,VALID,98.2124,VALID,-0.0339617,VALID,18.5091,VALID,15,VALID,0.64375,
2001-09-27, 02:56:00,VALID,915.548,VALID,0,VALID,98.2989,VALID,-0.0169808,VALID,18.5066,VALID,17,VALID,0.305304,
2001-09-27, 02:57:00,VALID,915.538,VALID,0,VALID,98.3726,VALID,-0.0169808,VALID,18.5195,VALID,14,VALID,0.540039,
2001-09-27, 02:58:00,VALID,915.531,VALID,0,VALID,98.3993,VALID,0,VALID,18.5158,VALID,10,VALID,0.721154,
2001-09-27, 02:59:00,VALID,915.531,VALID,0,VALID,98.4438,VALID,-0.0169808,VALID,18.5061,VALID,4,VALID,0.61582,
2001-09-27, 03:00:00,VALID,915.52,VALID,0,VALID,98.4756,VALID,0,VALID,18.5029,VALID,3,VALID,0.426604,
2001-09-27, 03:01:00,VALID,915.519,VALID,0,VALID,98.5303,VALID,0,VALID,18.4997,VALID,358,VALID,0.325781,
2001-09-27, 03:02:00,VALID,915.503,VALID,0,VALID,98.5761,VALID,0.0169808,VALID,18.499,VALID,356,VALID,0.228766,
2001-09-27, 03:03:00,VALID,915.499,VALID,0,VALID,98.6117,VALID,-0.0169808,VALID,18.5059,VALID,353,VALID,0.240625,
2001-09-27, 03:04:00,VALID,915.492,VALID,0,VALID,98.6358,VALID,-0.0169808,VALID,18.5027,VALID,333,VALID,0.155633,
2001-09-27, 03:05:00,VALID,915.472,VALID,0,VALID,98.6625,VALID,0,VALID,18.5225,VALID,329,VALID,0,
2001-09-27, 03:06:00,VALID,915.483,VALID,0,VALID,98.6765,VALID,0,VALID,18.5158,VALID,329,VALID,0,
2001-09-27, 03:07:00,VALID,915.478,VALID,0,VALID,98.7083,VALID,-0.0509425,VALID,18.5322,VALID,329,VALID,0,
2001-09-27, 03:08:00,VALID,915.48,VALID,0,VALID,98.7197,VALID,-0.0339617,VALID,18.5322,VALID,332,VALID,0,
2001-09-27, 03:09:00,VALID,915.493,VALID,0,VALID,98.7236,VALID,-0.0339617,VALID,18.532,VALID,62,VALID,0.195313,
2001-09-27, 03:10:00,VALID,915.52,VALID,0,VALID,98.6969,VALID,-0.0169808,VALID,18.5285,VALID,103,VALID,0.191016,
2001-09-27, 03:11:00,VALID,915.52,VALID,0,VALID,98.6841,VALID,-0.0169808,VALID,18.5188,VALID,114,VALID,0.433789,
2001-09-27, 03:12:00,VALID,915.537,VALID,0,VALID,98.6803,VALID,-0.0169808,VALID,18.5257,VALID,121,VALID,0.615337,
2001-09-27, 03:13:00,VALID,915.535,VALID,0,VALID,98.6524,VALID,-0.0169808,VALID,18.5059,VALID,119,VALID,0.718945,
2001-09-27, 03:14:00,VALID,915.546,VALID,0,VALID,98.6511,VALID,0,VALID,18.4957,VALID,132,VALID,0.663061,
2001-09-27, 03:15:00,VALID,915.536,VALID,0,VALID,98.6676,VALID,0,VALID,18.5091,VALID,134,VALID,0.996875,
2001-09-27, 03:16:00,VALID,915.515,VALID,0,VALID,98.7299,VALID,-0.0509425,VALID,18.519,VALID,147,VALID,1.15892,
2001-09-27, 03:17:00,VALID,915.497,VALID,0,VALID,98.7185,VALID,-0.101885,VALID,18.5433,VALID,146,VALID,0.950391,
2001-09-27, 03:18:00,VALID,915.487,VALID,0,VALID,98.674,VALID,-0.152827,VALID,18.5467,VALID,139,VALID,0.995994,
2001-09-27, 03:19:00,VALID,915.451,VALID,0,VALID,98.6244,VALID,-0.152827,VALID,18.5398,VALID,135,VALID,0.81543,
2001-09-27, 03:20:00,VALID,915.436,VALID,0,VALID,98.6384,VALID,-0.135847,VALID,18.5537,VALID,137,VALID,0.568051,
2001-09-27, 03:21:00,VALID,915.42,VALID,0,VALID,98.5824,VALID,-0.186789,VALID,18.5564,VALID,109,VALID,0.587695,
2001-09-27, 03:22:00,VALID,915.418,VALID,0,VALID,98.557,VALID,-0.118866,VALID,18.5597,VALID,126,VALID,0.834135,
2001-09-27, 03:23:00,VALID,915.406,VALID,0,VALID,98.5621,VALID,-0.101885,VALID,18.5562,VALID,129,VALID,0.676172,
2001-09-27, 03:24:00,VALID,915.396,VALID,0,VALID,98.5722,VALID,-0.118866,VALID,18.5723,VALID,113,VALID,1.01583,
2001-09-27, 03:25:00,VALID,915.384,VALID,0,VALID,98.5506,VALID,-0.169808,VALID,18.583,VALID,103,VALID,0.763672,
2001-09-27, 03:26:00,VALID,915.39,VALID,0,VALID,98.5608,VALID,-0.169808,VALID,18.5857,VALID,106,VALID,0.707332,
2001-09-27, 03:27:00,VALID,915.371,VALID,0,VALID,98.5684,VALID,-0.169808,VALID,18.579,VALID,114,VALID,0.595898,
2001-09-27, 03:28:00,VALID,915.383,VALID,0,VALID,98.5951,VALID,-0.152827,VALID,18.579,VALID,126,VALID,0.830592,
2001-09-27, 03:29:00,VALID,915.375,VALID,0,VALID,98.6015,VALID,-0.186789,VALID,18.5887,VALID,99,VALID,0.959961,
2001-09-27, 03:30:00,VALID,915.374,VALID,0,VALID,98.5989,VALID,-0.186789,VALID,18.5823,VALID,110,VALID,0.871394,
2001-09-27, 03:31:00,VALID,915.386,VALID,0,VALID,98.6129,VALID,-0.118866,VALID,18.5783,VALID,112,VALID,0.854883,
2001-09-27, 03:32:00,VALID,915.408,VALID,0,VALID,98.6295,VALID,-0.0849042,VALID,18.5942,VALID,112,VALID,0.74301,
2001-09-27, 03:33:00,VALID,915.43,VALID,0,VALID,98.6371,VALID,-0.0339617,VALID,18.5903,VALID,115,VALID,0.655273,
2001-09-27, 03:34:00,VALID,915.455,VALID,0,VALID,98.6485,VALID,-0.0169808,VALID,18.5968,VALID,130,VALID,0.747997,